Flag for Germany Weather past 2 weeks in Pirmasens, Rhineland-Palatinate, Germany

Now
43 °F

Sunny.


Feels Like: 43 °F
Forecast: 45 / 69 °F
Wind: No wind

Location: Ramstein

Current Time: Jul 30, 2015 at 7:14:56 AM

Latest Report: Jul 30, 2015 at 6:58 AM


Visibility: N/A

Pressure: 30.00 "Hg

Humidity: 93%

Dew point: 41 °F

Location of PirmasensLocation

Historic Weather in Pirmasens — Graph

°F

Pirmasens temperature yesterday

Maximum temperature yesterday: 70 °F (at 5:58 PM)
Minimum temperature yesterday: 46 °F (at 11:58 PM)
Average temperature yesterday: 59 °F

Past Weeks' High & Low Weather Summary

 TemperatureHumidityPressure
High94 °F (Jul 17, 5:58 PM)100% (Jul 18, 2:58 AM)30.14 "Hg (Jul 18, 2:58 AM)
Low39 °F (Jul 26, 5:03 AM)26% (Jul 16, 5:58 PM)29.64 "Hg (Jul 27, 4:58 AM)
Average69 °F66%29.91 "Hg
* Reported Jul 15 5:58 AM — Jul 30 5:58 AM, Pirmasens, Weather by CustomWeather, © 2015

Note: Actual official high and low records may vary slightly from our data, if they occured in-between our weather recording intervals... More about our weather records

Advertising

Pirmasens weather history for previous 24 hours

 ConditionsComfort  
Time TempWeatherWind HumidityBarometerVisibility
5:58 AM
Thu, Jul 30
43 °FPassing clouds.No wind95%29.98 "HgN/A
4:58 AM43 °FPassing clouds.No wind93%29.99 "HgN/A
3:58 AM40 °FPassing clouds.No wind95%29.98 "HgN/A
2:58 AM41 °FClear.1 mph93%29.98 "HgN/A
1:58 AM45 °FClear.No wind93%29.98 "HgN/A
12:58 AM46 °FClear.1 mph87%29.97 "HgN/A
11:58 PM
Wed, Jul 29
46 °FClear.2 mph91%29.96 "HgN/A
10:58 PM51 °FPassing clouds.3 mph76%29.95 "HgN/A
9:58 PM58 °FSunny.6 mph57%29.93 "HgN/A
8:58 PM62 °FSunny.7 mph46%29.90 "HgN/A
7:58 PM66 °FSunny.13 mph39%29.89 "HgN/A
6:58 PM68 °FSunny.13 mph35%29.86 "HgN/A
5:58 PM70 °FSunny.16 mph31%29.85 "HgN/A
4:58 PM67 °FSunny.14 mph36%29.85 "HgN/A
3:58 PM65 °FPassing clouds.15 mph44%29.84 "HgN/A
2:58 PM65 °FPassing clouds.9 mph49%29.83 "HgN/A
1:58 PM63 °FScattered clouds.9 mph58%29.84 "HgN/A
12:58 PM59 °FBroken clouds.7 mph77%29.84 "HgN/A
11:58 AM55 °FPassing clouds.7 mph91%29.85 "HgN/A
10:59 AM55 °FLight rain. Partly sunny.8 mph88%29.84 "Hg5 mi
9:58 AM56 °FPassing clouds.6 mph80%29.84 "HgN/A
9:03 AM55 °FScattered clouds.6 mph82%29.84 "HgN/A
8:58 AM55 °FPartly sunny.6 mph82%29.85 "HgN/A
7:58 AM55 °FScattered clouds.3 mph85%29.84 "HgN/A
Weather by CustomWeather, © 2015

See weather overviewHow to use our weather pages